Home > Weather > Bretten > Past weeks

Flag for Germany Past Weather in Bretten, Baden-Württemberg, Germany — Yesterday and Last 2 Weeks

Now
70 °F

Scattered showers. Partly cloudy.


Feels Like: 70 °F
Forecast: 56 / 78 °F
Wind: 3 mph from West

Location: Stuttgart-Echterdingen

Current Time: Aug 29, 2016 at 4:14:51 AM

Latest Report: Aug 29, 2016 at 3:20 AM


Visibility: N/A

Pressure: 30.09 "Hg

Humidity: 69%

Dew Point: 59 °F

Location of BrettenLocation

Past Weather in Bretten — Graph

°F

Bretten Temperature Yesterday

Maximum temperature yesterday: 91 °F (at 2:20 PM)
Minimum temperature yesterday: 68 °F (at 3:20 AM)
Average temperature yesterday: 79 °F

High & Low Weather Summary for the Past Weeks

 TemperatureHumidityPressure
High91 °F (Aug 27, 2:50 PM)100% (Aug 14, 5:50 AM)30.42 "Hg (Aug 14, 5:50 AM)
Low54 °F (Aug 22, 1:50 AM)26% (Aug 27, 6:20 PM)29.83 "Hg (Aug 18, 5:20 AM)
Average70 °F67%30.09 "Hg
* Reported Aug 14 2:20 AM — Aug 29 2:50 AM, Bretten, Weather by CustomWeather, © 2016

Note: Actual official high and low records may vary slightly from our data, if they occured in-between our weather recording intervals... More about our weather records

Advertising

Bretten Weather History for the Previous 24 Hours

Scroll right to see more
 ConditionsComfort  
Time TempWeatherWind HumidityBarometerVisibility
2:50 AM
Mon, Aug 29
72 °FPartly cloudy.2 mph65%30.09 "HgN/A
2:20 AM72 °FScattered showers. Partly cloudy.3 mph65%30.07 "HgN/A
1:50 AM72 °FLight rain. Partly cloudy.5 mph69%30.09 "HgN/A
1:20 AM72 °FClear.9 mph69%30.07 "Hg10 mi
12:50 AM72 °FClear.8 mph69%30.07 "Hg10 mi
12:20 AM72 °FPassing clouds.5 mph69%30.07 "HgN/A
11:50 PM
Sun, Aug 28
73 °FClear.9 mph65%30.07 "Hg10 mi
11:20 PM75 °FClear.7 mph61%30.07 "Hg10 mi
10:50 PM77 °FPassing clouds.3 mph57%30.07 "HgN/A
10:20 PM77 °FClear.7 mph57%30.04 "Hg10 mi
9:50 PM77 °FClear.8 mph57%30.04 "Hg10 mi
9:20 PM79 °FClear.9 mph54%30.04 "Hg10 mi
8:50 PM81 °FSunny.9 mph48%30.01 "Hg10 mi
8:20 PM81 °FSunny.14 mph48%30.01 "Hg10 mi
7:50 PM84 °FSunny.1 mph45%30.01 "Hg10 mi
7:20 PM86 °FScattered clouds.3 mph40%30.01 "HgN/A
6:50 PM88 °FScattered clouds.7 mph35%30.01 "HgN/A
6:20 PM88 °FScattered clouds.9 mph35%29.98 "HgN/A
5:50 PM88 °FPassing clouds.8 mph35%30.01 "HgN/A
5:20 PM90 °FPassing clouds.9 mph33%30.01 "HgN/A
4:50 PM90 °FPassing clouds.9 mph33%30.01 "HgN/A
4:20 PM90 °FScattered clouds.6 mph33%30.01 "HgN/A
3:50 PM88 °FThundershowers. Scattered clouds.7 mph33%30.01 "HgN/A
3:20 PM86 °FThunderstorms. Scattered clouds.14 mph38%30.01 "HgN/A
2:50 PM90 °FThunderstorms. Scattered clouds.14 mph33%30.01 "HgN/A
2:20 PM91 °FThundershowers. Scattered clouds.6 mph32%30.01 "HgN/A
1:50 PM90 °FThundershowers. Scattered clouds.5 mph36%30.01 "HgN/A
1:20 PM90 °FPassing clouds.5 mph36%30.01 "HgN/A
12:50 PM88 °FPassing clouds.6 mph38%30.04 "HgN/A
12:20 PM86 °FSunny.7 mph43%30.04 "Hg10 mi
11:50 AM82 °FPassing clouds.7 mph51%30.04 "HgN/A
11:20 AM84 °FPassing clouds.6 mph45%30.07 "HgN/A
10:50 AM82 °FPassing clouds.3 mph51%30.07 "HgN/A
10:20 AM81 °FPassing clouds.5 mph48%30.07 "HgN/A
9:50 AM79 °FPassing clouds.2 mph51%30.07 "HgN/A
9:20 AM77 °FPassing clouds.5 mph61%30.07 "HgN/A
8:50 AM72 °FPassing clouds.2 mph69%30.07 "HgN/A
8:20 AM70 °FScattered clouds.6 mph73%30.07 "HgN/A
7:50 AM68 °FThundershowers. Scattered clouds.10 mph78%30.04 "HgN/A
7:20 AM72 °FThunderstorms. Passing clouds.7 mph69%30.07 "HgN/A
6:50 AM72 °FThunderstorms. Partly cloudy.7 mph73%30.04 "HgN/A
6:20 AM72 °FThunderstorms. Passing clouds.5 mph73%30.04 "HgN/A
5:50 AM73 °FPassing clouds.2 mph65%30.04 "HgN/A
5:20 AM72 °FClear.1 mph69%30.04 "Hg10 mi
4:50 AM68 °FClear.1 mph78%30.04 "Hg10 mi
4:20 AM68 °FClear.5 mph78%30.04 "Hg10 mi
Weather by CustomWeather, © 2016

See weather overviewHow to use our weather pages